Date String (YYYY-MM-DD hh:mm:ss) UTC,Instrument flags,absolute air pressure of the measurement (hPa),sample flow rate (lpm),inlet stack bypass flow (lpm),air temperature of the measurement (°C),ambient temperature measured by the external sensor (°C),aerosol sample conditioner tube jacket temperature (°C),OPC LED temperature (°C),internal box temperature (°C),relative humidity of the measurement (%),span deviation,mass concentration of particles derived from Lorenz-Mie calculation of OPC scattering (μg/m³),mass concentration of particles derived from Lorenz-Mie calculation of OPC scattering (μg/m³),mass concentration of particles derived from Lorenz-Mie calculation of OPC scattering (μg/m³)
DateTimeUTC,F1_M11,P_M11,Q1_M11,Q2_M11,T1_M11,T2_M11,T3_M11,T4_M11,T5_M11,U1_M11,ZSPAN_M11,X2_M11,X0_M11,X1_M11
2024-01-25 15:00:00,SystemResetWarning,0826.7,5.00,000.00,020.0,019.2,000.0,028.3,021.4,16.7,0000.0,0001.49,0002.41,0001.40
2024-01-25 15:01:00,SystemResetWarning,0826.7,5.00,000.00,020.0,019.2,000.0,028.3,021.4,16.8,0000.0,0001.53,0001.78,0001.45
2024-01-25 15:02:00,SystemResetWarning,0826.7,5.00,000.00,020.0,019.2,000.0,028.3,021.4,17.0,0000.0,0001.59,0001.81,0001.52
2024-01-25 15:03:00,SystemResetWarning,0826.6,5.00,000.00,020.0,019.2,000.0,028.3,021.4,17.2,0000.0,0001.63,0001.83,0001.57
2024-01-25 15:04:00,SystemResetWarning,0826.6,5.00,000.00,020.0,019.2,000.0,028.3,021.4,17.2,0000.0,0001.66,0001.94,0001.59
2024-01-25 15:05:00,SystemResetWarning,0826.6,5.00,000.00,020.0,019.2,000.0,028.3,021.4,17.3,0000.0,0001.67,0002.01,0001.60
2024-01-25 15:06:00,SystemResetWarning,0826.6,5.00,000.00,020.0,019.2,000.0,028.3,021.4,17.3,0000.0,0001.68,0002.06,0001.61
2024-01-25 15:07:00,SystemResetWarning,0826.6,5.00,000.00,020.0,019.2,000.0,028.3,021.4,17.3,0000.0,0001.71,0002.12,0001.64
2024-01-25 15:08:00,SystemResetWarning,0826.7,4.99,000.00,020.0,019.2,000.0,028.3,021.4,17.4,0000.0,0001.84,0002.30,0001.74
2024-01-25 15:09:00,SystemResetWarning,0826.6,5.00,000.00,020.0,019.2,000.0,028.3,021.4,17.6,0000.0,0001.96,0002.50,0001.82
2024-01-25 15:10:00,SystemResetWarning,0826.6,5.00,000.00,020.0,019.2,000.0,028.3,021.4,17.4,0000.0,0001.96,0002.51,0001.82
2024-01-25 15:11:00,SystemResetWarning,0826.6,5.00,000.00,020.0,019.2,000.0,028.3,021.4,17.1,0000.0,0002.01,0002.60,0001.85
2024-01-25 15:12:00,SystemResetWarning,0826.6,5.00,000.00,020.0,019.2,000.0,028.3,021.5,16.8,0000.0,0002.11,0003.27,0001.93
2024-01-25 15:13:00,SystemResetWarning,0826.7,5.00,000.00,020.0,019.2,000.0,028.3,021.5,16.9,0000.0,0002.21,0004.30,0002.03
2024-01-25 15:14:00,SystemResetWarning,0826.6,5.00,000.00,020.0,019.3,000.0,028.3,021.5,16.9,0000.0,0002.33,0004.43,0002.15
2024-01-25 15:15:00,SystemResetWarning,0826.6,4.99,000.00,020.1,019.3,000.0,028.4,021.5,16.9,0000.0,0002.48,0004.55,0002.26
2024-01-25 15:16:00,SystemResetWarning,0826.7,5.00,000.00,020.1,019.3,000.0,028.4,021.5,16.8,0000.0,0002.61,0004.67,0002.33
2024-01-25 15:17:00,SystemResetWarning,0826.7,5.00,000.00,020.1,019.3,000.0,028.4,021.5,16.4,0000.0,0002.75,0004.86,0002.44
2024-01-25 15:18:00,SystemResetWarning,0826.7,5.00,000.00,020.1,019.3,000.0,028.4,021.5,16.4,0000.0,0002.91,0004.97,0002.60
2024-01-25 15:19:00,SystemResetWarning,0826.8,5.00,000.00,020.1,019.3,000.0,028.4,021.5,16.0,0000.0,0003.03,0005.10,0002.72
2024-01-25 15:20:00,SystemResetWarning,0826.8,5.00,000.00,020.1,019.3,000.0,028.4,021.5,15.3,0000.0,0003.06,0005.10,0002.78
2024-01-25 15:21:00,SystemResetWarning,0826.8,5.00,000.00,020.1,019.3,000.0,028.4,021.6,15.4,0000.0,0003.12,0005.16,0002.87
2024-01-25 15:22:00,SystemResetWarning,0826.8,5.00,000.00,020.1,019.3,000.0,028.4,021.6,15.7,0000.0,0003.20,0005.33,0003.01
2024-01-25 15:23:00,SystemResetWarning,0826.8,5.00,000.00,020.1,019.3,000.0,028.4,021.6,15.7,0000.0,0003.26,0005.18,0003.10
2024-01-25 15:24:00,SystemResetWarning,0826.8,5.00,000.00,020.1,019.3,000.0,028.4,021.6,15.8,0000.0,0003.30,0004.11,0003.14
2024-01-25 15:25:00,SystemResetWarning,0826.8,5.00,000.00,020.1,019.3,000.0,028.4,021.6,15.9,0000.0,0003.33,0004.32,0003.15
2024-01-25 15:26:00,SystemResetWarning,0826.8,5.00,000.00,020.1,019.3,000.0,028.4,021.6,15.7,0000.0,0003.34,0004.33,0003.17
2024-01-25 15:27:00,SystemResetWarning,0826.8,5.00,000.00,020.2,019.4,000.0,028.4,021.6,15.7,0000.0,0003.36,0004.49,0003.20
2024-01-25 15:28:00,SystemResetWarning,0826.8,4.99,000.00,020.2,019.4,000.0,028.4,021.6,15.8,0000.0,0003.37,0004.51,0003.22
2024-01-25 15:29:00,SystemResetWarning,0826.8,4.99,000.00,020.2,019.4,000.0,028.4,021.7,16.0,0000.0,0003.40,0005.50,0003.23
2024-01-25 15:30:00,SystemResetWarning,0826.8,4.99,000.00,020.2,019.4,000.0,028.4,021.7,16.3,0000.0,0003.39,0005.60,0003.23
2024-01-25 15:31:00,SystemResetWarning,0826.8,5.00,000.00,020.2,019.4,000.0,028.5,021.7,16.5,0000.0,0003.40,0005.58,0003.24
2024-01-25 15:32:00,SystemResetWarning,0826.7,5.00,000.00,020.2,019.4,000.0,028.5,021.7,16.5,0000.0,0003.42,0005.62,0003.26
2024-01-25 15:33:00,SystemResetWarning,0826.8,5.00,000.00,020.2,019.4,000.0,028.5,021.7,16.1,0000.0,0003.41,0005.58,0003.25
2024-01-25 15:34:00,SystemResetWarning,0826.8,5.01,000.00,020.2,019.5,000.0,028.5,021.7,16.4,0000.0,0003.41,0005.56,0003.24
2024-01-25 15:35:00,SystemResetWarning,0826.8,5.01,000.00,020.2,019.5,000.0,028.5,021.7,16.5,0000.0,0003.40,0005.57,0003.23
2024-01-25 15:36:00,SystemResetWarning,0826.8,5.00,000.00,020.2,019.5,000.0,028.5,021.7,16.7,0000.0,0003.42,0005.72,0003.23
2024-01-25 15:37:00,SystemResetWarning,0826.8,5.00,000.00,020.2,019.5,000.0,028.5,021.7,16.9,0000.0,0003.43,0005.83,0003.23
2024-01-25 15:38:00,SystemResetWarning,0826.8,4.99,000.00,020.2,019.5,000.0,028.5,021.7,17.4,0000.0,0003.42,0005.77,0003.23
2024-01-25 15:39:00,SystemResetWarning,0826.9,5.00,000.00,020.3,019.5,000.0,028.5,021.7,17.6,0000.0,0003.42,0005.66,0003.23
2024-01-25 15:40:00,SystemResetWarning,0826.9,5.00,000.00,020.3,019.5,000.0,028.5,021.8,17.4,0000.0,0003.41,0005.29,0003.23
2024-01-25 15:41:00,SystemResetWarning,0826.9,5.00,000.00,020.3,019.5,000.0,028.5,021.8,17.3,0000.0,0003.40,0004.61,0003.19
2024-01-25 15:42:00,SystemResetWarning,0826.9,5.00,000.00,020.3,019.6,000.0,028.5,021.8,16.7,0000.0,0003.36,0004.61,0003.14
2024-01-25 15:43:00,SystemResetWarning,0826.9,5.00,000.00,020.3,019.6,000.0,028.6,021.8,16.6,0000.0,0003.32,0004.54,0003.10
2024-01-25 15:44:00,SystemResetWarning,0827.0,5.00,000.00,020.3,019.6,000.0,028.6,021.8,16.9,0000.0,0003.30,0004.48,0003.07
2024-01-25 15:45:00,SystemResetWarning,0827.0,5.00,000.00,020.3,019.6,000.0,028.6,021.8,17.2,0000.0,0003.29,0004.59,0003.05
2024-01-25 15:46:00,SystemResetWarning,0826.9,5.00,000.00,020.3,019.6,000.0,028.6,021.8,17.3,0000.0,0003.27,0004.53,0003.04
2024-01-25 15:47:00,SystemResetWarning,0827.0,5.00,000.00,020.3,019.6,000.0,028.6,021.8,17.6,0000.0,0003.24,0004.38,0003.02
2024-01-25 15:48:00,SystemResetWarning,0827.0,5.00,000.00,020.3,019.6,000.0,028.6,021.8,17.4,0000.0,0003.20,0004.12,0002.98
2024-01-25 15:49:00,SystemResetWarning,0826.9,5.00,000.00,020.4,019.6,000.0,028.6,021.9,17.5,0000.0,0003.19,0004.07,0002.97
2024-01-25 15:50:00,SystemResetWarning,0827.0,5.00,000.00,020.4,019.7,000.0,028.6,021.9,18.0,0000.0,0003.16,0003.97,0002.91
2024-01-25 15:51:00,SystemResetWarning,0826.9,5.00,000.00,020.4,019.7,000.0,028.6,021.8,17.9,0000.0,0003.12,0003.90,0002.82
2024-01-25 15:52:00,SystemResetWarning,0827.0,5.00,000.00,020.4,019.7,000.0,028.6,021.8,17.7,0000.0,0003.09,0003.91,0002.78
2024-01-25 15:53:00,SystemResetWarning,0827.0,5.00,000.00,020.4,019.7,000.0,028.6,021.9,17.6,0000.0,0003.08,0003.95,0002.76
2024-01-25 15:54:00,SystemResetWarning,0826.9,5.01,000.00,020.4,019.7,000.0,028.7,021.9,17.7,0000.0,0003.05,0004.00,0002.70
2024-01-25 15:55:00,SystemResetWarning,0826.9,5.00,000.00,020.4,019.7,000.0,028.7,021.9,17.9,0000.0,0003.05,0004.06,0002.66
2024-01-25 15:56:00,SystemResetWarning,0826.9,5.00,000.00,020.5,019.7,000.0,028.7,021.9,18.0,0000.0,0002.99,0003.86,0002.60
2024-01-25 15:57:00,SystemResetWarning,0826.9,5.00,000.00,020.5,019.8,000.0,028.7,021.9,18.0,0000.0,0002.92,0004.35,0002.53
2024-01-25 15:58:00,SystemResetWarning,0826.9,5.00,000.00,020.5,019.8,000.0,028.7,021.9,17.8,0000.0,0002.83,0004.42,0002.46
2024-01-25 15:59:00,SystemResetWarning,0826.9,5.00,000.00,020.5,019.8,000.0,028.7,021.9,17.7,0000.0,0002.80,0004.49,0002.39
